Portada
METAR-TAF:

METAR-TAF

Aeropuertos :

Trent Lott International Airport

Pascagoula, Misisipi, Estados Unidos

latitud: 30-27-49N, longitud: 088-31-55W, altitud: 5 m

Observación

El informe se hizo hace 55 minutos, a las 11:58 UTC
Viento calma
Temperatura -1°C
Humedad 86%
Presión 1027 hPa
Visibilidad: 4.8 km
Escasas nubes a una altura de 200 ft
neblina

METAR: KPQL 021158Z AUTO 00000KT 3SM BR FEW002 M01/M03 A3034 RMK AO2 T10061028

Hora: 06:53 (12:53 UTC)


TAF: falta

Observaciones y pronósticos meteorológicos de más de 4000 aeropuertos (mensajes METAR y TAF).

Los puntos amarillos y rojos representan las estaciones disponibles.

Ponga el ratón en el punto deseado para ver el nombre de la estación.

Haga clic para ver las observaciones y los pronósticos meteorológicos.

Para cambiar el mapa : haga clic en los botones verdes con una cruz de color negro para hacer un zoom, en el botón verde con un guión para alejar o en las flechas verdes para mapas adyacentes.


METAR-TAF: